Location: ??
(35.3192°N, 139.5371°E)
Time: 00:46:55
(UTC+00:00)

Daily predictions for brighter satellites

Satellite Brightness Start Highest point End
(mag) Time Altitude Azimuth Time Altitude Azimuth Time Altitude Azimuth
Cosmos 1725 Rocket 4.2 07:59:07 10° SSE 08:05:05 51° E 08:11:06 10° NNE
SJ-12 4.1 08:01:41 10° SE 08:05:16 41° ENE 08:08:52 10° N
YAOGAN 1 4.3 08:04:07 10° E 08:05:37 12° ENE 08:07:05 10° NE
Cosmos 1025 Rocket 3.5 08:04:28 10° N 08:08:30 37° E 08:12:29 10° SSE
ARIANE 6 FM1 Upper Stage 4.1 08:06:49 10° WSW 08:10:32 35° NW 08:14:12 10° NNE
IGS 5A 4.0 08:08:02 10° S 08:11:57 62° W 08:15:54 10° NNW
Cosmos 1802 Rocket 4.1 08:06:45 10° S 08:13:04 68° E 08:19:27 10° NNE
SL-16 R/B 4.2 08:09:06 10° N 08:14:41 35° WNW 08:20:14 10° SW
Cosmos 2233 Rocket 4.4 08:10:24 10° SSE 08:16:10 41° E 08:22:00 10° NNE
MOS 1 Rocket 3.7 08:17:39 10° SE 08:21:28 33° ENE 08:25:18 10° N
Cosmos 1378 Rocket 4.0 08:17:54 10° NNW 08:22:11 67° W 08:26:28 10° S
Cosmos 2173 Rocket 4.5 08:17:42 10° SSW 08:23:57 68° W 08:30:09 10° N
Meteor 1-11 4.2 08:19:09 10° N 08:24:55 87° E 08:30:32 10° S
Cosmos 1782 Rocket 4.1 08:22:06 10° SSE 08:26:09 37° E 08:30:14 10° NNE
NOSS 3-4 (A) 4.4 08:20:35 10° NNW 08:27:04 37° NE 08:34:26 10° ESE
NOSS 3-4 (C) 4.4 08:20:41 10° NNW 08:27:08 37° NE 08:34:28 10° ESE
SL-08 R/B 4.5 08:21:21 10° S 08:27:24 62° E 08:33:25 10° NNE
Delta 2 Rocket 3.1 08:28:18 10° WSW 08:32:20 81° SSE 08:35:14 17° E
IRS-P3 4.1 08:27:50 10° SSE 08:33:07 71° ENE 08:38:25 10° N
Tsikada Rocket 4.3 08:30:06 10° N 08:36:13 45° E 08:42:16 10° SSE
CZ-4C R/B 3.2 08:32:46 10° WSW 08:36:24 31° NW 08:40:45 10° NNE
Cosmos 1441 Rocket 3.6 08:33:49 10° NNE 08:36:46 29° ENE 08:39:42 10° SE
COSMO-SKYMED 1 2.8 08:33:09 10° NNE 08:37:04 41° E 08:40:57 10° S
SKYMED 2 3.5 08:35:59 10° NNE 08:40:19 69° E 08:44:38 10° S
Cosmos 1908 Rocket 4.0 08:37:31 10° SSW 08:41:51 64° W 08:46:14 10° N
CZ-2D R/B 4.0 08:40:09 10° S 08:43:11 44° W 08:46:15 10° NNW
SPOT 1/Viking Rocket 3.7 08:38:33 10° SE 08:43:27 47° ENE 08:48:22 10° N
ARIANE 5 R/B 3.1 08:39:26 10° S 08:44:21 59° W 08:49:16 10° NNW
Cosmos 1300 Rocket 3.4 08:42:01 10° S 08:46:23 74° E 08:50:47 10° N
Cosmos 1943 Rocket 3.6 08:45:07 10° SE 08:48:20 17° ESE 08:48:20 17° ESE
USA 281 4.4 08:47:07 18° ENE 08:48:55 21° NE 08:53:30 10° N
Cosmos 1140 Rocket 3.7 08:47:03 10° S 08:52:00 48° ESE 08:56:46 11° NNE
Cosmos 1975 Rocket 3.8 08:49:39 10° NNE 08:53:28 29° ENE 08:57:15 10° SE
Cosmos 2016 Rocket 4.4 08:48:55 10° SSW 08:55:03 66° W 09:01:20 10° N
Geosat 4.2 08:50:43 10° SE 08:55:28 47° ENE 09:00:15 10° NNW
Cosmos 2221 Rocket 4.1 08:52:14 10° NNW 08:56:42 62° W 09:01:05 10° S
IRAS Rocket 4.2 08:51:32 10° SSE 08:57:01 59° ENE 09:02:29 10° N
Cosmos 2084 Rocket 3.4 08:58:15 10° SSW 09:02:19 56° ESE 09:03:54 33° ENE
SJ-7 4.1 09:00:52 10° SSE 09:04:30 61° ENE 09:08:09 10° N
Cosmos 1869 4.2 09:01:51 10° SSE 09:03:54 27° SE 09:03:54 27° SE
Helios 1A Rocket 2.9 09:02:12 10° N 09:05:31 59° WNW 09:08:50 10° SSW
ATLAS CENTAUR R/B 2.9 09:05:09 10° WSW 09:08:08 27° NW 09:11:00 11° N
SL-19 R/B 4.1 09:03:19 10° SSE 09:08:37 63° ENE 09:13:47 10° N
Cosmos 1833 Rocket 3.3 09:07:45 10° N 09:12:51 33° ENE 09:13:07 33° ENE
PSLV R/B 3.2 09:10:35 10° SSE 09:14:39 74° ENE 09:18:43 10° N
Cosmos 2061 Rocket 4.3 09:09:54 10° SSW 09:16:14 69° W 09:22:32 10° N
Aureole 3 Rocket 4.0 09:15:37 10° S 09:17:38 25° SSE 09:17:38 25° SSE
Spot 4 Rocket 4.1 09:19:24 10° S 09:24:29 77° WSW 09:29:35 10° NNW
Resurs 1-3 3.5 09:25:10 10° S 09:29:28 80° W 09:33:46 10° NNW
Cosmos 407 Rocket 3.4 09:29:23 10° S 09:34:32 60° ESE 09:34:33 60° ESE
SL-12 R/B(2) 4.0 09:31:13 10° SSW 09:38:45 81° ESE 09:44:47 23° NE
Tiangong 0.3 09:36:38 10° NW 09:37:53 19° NW 09:37:53 19° NW
YAOGAN 1 3.3 09:36:49 10° S 09:40:57 52° W 09:45:07 10° NNW
NOAA 6 4.0 09:39:12 10° S 09:44:21 80° WSW 09:49:31 10° NNW
OAO 2 Rocket 4.2 09:50:39 10° SW 09:54:33 40° S 09:54:33 40° S
Cosmos 2278 Rocket 2.6 09:50:37 10° S 09:54:46 49° S 09:54:46 49° S
Cosmos 1464 Rocket 3.9 09:57:01 10° S 10:03:22 88° E 10:04:25 65° N
Cosmos 1943 Rocket 3.4 10:26:21 10° SW 10:29:55 37° WSW 10:29:55 37° WSW
USA 281 3.6 10:34:01 57° NW 10:34:01 57° NW 10:39:20 10° NNW
